Weather History for Bennington, VT

Change the Weather History Date:

Friday, December 27, 2013

  Actual Average Record
Temperature  
Mean Temperature 27 °F 24 °F  
Max Temperature 31 °F 32 °F 52 °F (2011)
Min Temperature 23 °F 15 °F 1 °F (2004)
Degree Days  
Heating Degree Days 38 41  
Month to date heating degree days 973 992  
Since 1 July heating degree days 2504 2605  
Cooling Degree Days 0 0  
Month to date cooling degree days 0 0  
Year to date cooling degree days 503 313  
Moisture  
Dew Point 17 °F    
Average Humidity 61    
Maximum Humidity 69    
Minimum Humidity 53    
Precipitation  
Precipitation 0.00 in 0.09 in 0.46 in (2011)
Month to date precipitation 1.98 2.48  
Year to date precipitation 43.88 40.39  
Sea Level Pressure  
Sea Level Pressure 30.24 in    
Wind  
Wind Speed 4 mph (WSW)    
Max Wind Speed 10 mph    
Max Gust Speed 18 mph    
Visibility 10 miles    
Events      
T = Trace of Precipitation, MM = Missing Value Source: NWS Daily Summary

Daily Weather History Graph

Daily Weather History Graph

Search for Another Location

Airport:

Trip Planner

Search our weather history database for the weather conditions in past years. The results will help you decide how hot, cold, wet, or windy it might be!

Date:

Astronomy

Dec. 27, 2013 Rise Set
Actual Time 7:23 AM EST 4:25 PM EST
Civil Twilight 6:50 AM EST 4:57 PM EST
Nautical Twilight 6:15 AM EST 5:33 PM EST
Astronomical Twilight 5:40 AM EST 6:07 PM EST
Moon 1:46 AM EST (12/27) 12:38 PM EST (12/27)
Length of Visible Light 10h 06m
Length of Day
9h 02m
Waning Crescent, 28% of the Moon is Illuminated
Dec 27
Waning Crescent
Jan 1
New
Jan 7
First Quarter
Jan 15
Full
Jan 24
Last Quarter

Hourly Weather History & Observations

Time (EST) Temp. Windchill Dew Point Humidity Pressure Visibility Wind Dir Wind Speed Gust Speed Precip Events Conditions
12:54 AM 27.0 °F 21.6 °F 17.1 °F 66% 30.21 in 10.0 mi WSW 4.6 mph - N/A   Overcast
1:54 AM 27.0 °F 18.7 °F 17.1 °F 66% 30.22 in 10.0 mi WSW 8.1 mph - N/A   Overcast
2:54 AM 27.0 °F 18.7 °F 16.0 °F 63% 30.24 in 10.0 mi WSW 8.1 mph - N/A   Overcast
3:54 AM 26.1 °F 20.5 °F 15.1 °F 63% 30.24 in 10.0 mi WSW 4.6 mph - N/A   Overcast
4:54 AM 24.1 °F 18.2 °F 14.0 °F 65% 30.25 in 10.0 mi WSW 4.6 mph - N/A   Clear
5:54 AM 24.1 °F 19.7 °F 15.1 °F 69% 30.25 in 10.0 mi Variable 3.5 mph - N/A   Mostly Cloudy
6:54 AM 24.1 °F - 15.1 °F 69% 30.27 in 10.0 mi Calm Calm - N/A   Scattered Clouds
7:54 AM 24.1 °F - 14.0 °F 65% 30.27 in 10.0 mi Calm Calm - N/A   Clear
8:54 AM 25.0 °F 20.7 °F 15.1 °F 66% 30.28 in 10.0 mi Variable 3.5 mph - N/A   Overcast
9:54 AM 26.1 °F 19.4 °F 15.1 °F 63% 30.27 in 10.0 mi WNW 5.8 mph - N/A   Overcast
10:54 AM 27.0 °F 23.0 °F 15.1 °F 61% 30.26 in 10.0 mi Variable 3.5 mph - N/A   Mostly Cloudy
11:54 AM 28.0 °F 22.8 °F 16.0 °F 61% 30.23 in 10.0 mi West 4.6 mph - N/A   Overcast
12:54 PM 28.9 °F 25.2 °F 16.0 °F 58% 30.22 in 10.0 mi WSW 3.5 mph - N/A   Overcast
1:54 PM 30.0 °F - 16.0 °F 56% 30.20 in 10.0 mi Calm Calm - N/A   Mostly Cloudy
2:54 PM 30.0 °F 26.5 °F 17.1 °F 59% 30.20 in 10.0 mi WNW 3.5 mph - N/A   Overcast
3:54 PM 30.0 °F 25.2 °F 18.0 °F 61% 30.21 in 10.0 mi West 4.6 mph - N/A   Overcast
4:54 PM 30.0 °F - 19.0 °F 64% 30.22 in 10.0 mi Calm Calm - N/A   Overcast
5:54 PM 30.0 °F 26.5 °F 19.9 °F 66% 30.23 in 10.0 mi SW 3.5 mph - N/A   Overcast
6:54 PM 30.9 °F 26.2 °F 19.9 °F 64% 30.24 in 10.0 mi Variable 4.6 mph - N/A   Overcast
7:54 PM 30.9 °F 24.3 °F 21.0 °F 67% 30.26 in 10.0 mi SW 6.9 mph - N/A   Overcast
8:54 PM 30.9 °F 26.2 °F 19.9 °F 64% 30.25 in 10.0 mi Variable 4.6 mph - N/A   Overcast
9:54 PM 30.9 °F 25.2 °F 19.9 °F 64% 30.25 in 10.0 mi Variable 5.8 mph - N/A   Overcast
10:54 PM 28.9 °F 25.2 °F 19.0 °F 67% 30.23 in 10.0 mi WSW 3.5 mph - N/A   Clear
11:54 PM 28.9 °F 23.9 °F 19.0 °F 67% 30.22 in 10.0 mi South 4.6 mph - N/A   Overcast